Tracking 34138 objects as of 15-May-2026
HD Live streaming from Space Station
objects crossing your sky now

STARLINK-37119

Track STARLINK-37119 now!
10-day predictions
STARLINK-37119 is classified as:


NORAD ID: 68210
Int'l Code: 2026-053D
Perigee: 471.4 km
Apogee: 473.8 km
Inclination: 97.3 °
Period: 93.9 minutes
Semi major axis: 6843 km
RCS: Unknown
Launch date: March 17, 2026
Source: United States (US)
Launch site: AIR FORCE WESTERN TEST RANGE (AFWTR)
Your satellite tracking list
Your tracking list is empty




NASA's NSSDC Master Catalog

Two Line Element Set (TLE):
1 68210U 26053D   26135.23555519  .00021657  00000-0  67040-3 0  9996
2 68210  97.2864  10.7840 0001729  85.8053 274.3387 15.33483406 10410
Source of the keplerian elements: AFSPC